Camarillo, CA

12:59 AM PST on February 12, 2016 (GMT -0800)
Camarillo

Weather History for KCMA - February, 2014

Change the Weather History Date:

Thursday, February 20, 2014

  Actual Average Record
Temperature  
Mean Temperature 66 °F 54 °F  
Max Temperature 84 °F 65 °F 88 °F (1995)
Min Temperature 47 °F 42 °F 30 °F (1955)
Degree Days  
Heating Degree Days 0 11  
Month to date heating degree days 183 230  
Since 1 July heating degree days 902 1249  
Cooling Degree Days 1 0  
Month to date cooling degree days 1 0  
Year to date cooling degree days 28 7  
Growing Degree Days 16 (Base 50)    
Moisture  
Dew Point 34 °F    
Average Humidity 45    
Maximum Humidity 80    
Minimum Humidity 10    
Precipitation  
Precipitation 0.00 in 0.16 in 1.80 in (1996)
Month to date precipitation 0.36 2.57  
Year to date precipitation 0.37 6.04  
Since 1 July precipitation 1.19  
Sea Level Pressure  
Sea Level Pressure 30.00 in    
Wind  
Wind Speed 11 mph (NE)    
Max Wind Speed 32 mph    
Max Gust Speed 39 mph    
Visibility 10 miles    
Events      
T = Trace of Precipitation, MM = Missing Value Source: NWS Daily Summary

Daily Weather History Graph

Daily Weather History Graph

Search for Another Location

Airport or City:

Trip Planner

Search our weather history database for the weather conditions in past years. The results will help you decide how hot, cold, wet, or windy it might be!

Date:

Astronomy

Feb. 20, 2014 Rise Set
Actual Time 6:35 AM PST 5:44 PM PST
Civil Twilight 6:10 AM PST 6:10 PM PST
Nautical Twilight 5:41 AM PST 6:39 PM PST
Astronomical Twilight 5:12 AM PST 7:08 PM PST
Moon 11:26 PM PST (2/20) 9:37 AM PST (2/20)
Length of Visible Light 11h 59m
Length of Day
11h 09m
Waning Gibbous, 70% of the Moon is Illuminated
Feb 20
Waning Gibbous
Feb 22
Last Quarter
Mar 1
New
Mar 8
First Quarter
Mar 16
Full

Hourly Weather History & Observations

Time (PST) Temp. Dew Point Humidity Pressure Visibility Wind Dir Wind Speed Gust Speed Precip Events Conditions
12:55 AM 48.0 °F 42.1 °F 80% 29.98 in 10.0 mi Calm Calm - N/A   Clear
1:55 AM 48.0 °F 39.9 °F 74% 29.99 in 10.0 mi NNE 3.5 mph - N/A   Clear
2:55 AM 48.9 °F 37.9 °F 66% 29.99 in 10.0 mi NNW 4.6 mph - N/A   Clear
3:55 AM 54.0 °F 37.9 °F 55% 29.98 in 10.0 mi NE 9.2 mph - N/A   Clear
4:55 AM 55.0 °F 35.1 °F 47% 29.99 in 10.0 mi NNE 3.5 mph - N/A   Clear
5:55 AM 57.0 °F 33.1 °F 40% 29.99 in 10.0 mi NE 9.2 mph - N/A   Clear
6:55 AM 62.1 °F 34.0 °F 35% 30.01 in 10.0 mi ENE 16.1 mph - N/A   Clear
7:55 AM 66.9 °F 33.1 °F 28% 30.02 in 10.0 mi ENE 21.9 mph 28.8 mph N/A   Clear
8:55 AM 73.0 °F 28.0 °F 19% 30.03 in 10.0 mi ENE 25.3 mph 33.4 mph N/A   Clear
9:55 AM 75.9 °F 26.1 °F 16% 30.04 in 10.0 mi ENE 23.0 mph 36.8 mph N/A   Clear
10:55 AM 79.0 °F 27.0 °F 15% 30.05 in 10.0 mi ENE 25.3 mph 33.4 mph N/A   Clear
11:55 AM 80.1 °F 24.1 °F 13% 30.04 in 10.0 mi ENE 25.3 mph 31.1 mph N/A   Clear
12:55 PM 82.0 °F 21.0 °F 10% 30.01 in 10.0 mi ENE 19.6 mph 33.4 mph N/A   Clear
1:55 PM 84.0 °F 21.0 °F 10% 29.99 in 10.0 mi ENE 15.0 mph - N/A   Clear
2:47 PM 73.4 °F 44.6 °F 36% 29.97 in 10.0 mi WSW 11.5 mph - N/A   Clear
2:55 PM 73.0 °F 44.1 °F 35% 30.00 in 10.0 mi WSW 11.5 mph - N/A   Clear
3:55 PM 75.0 °F 32.0 °F 21% 29.99 in 10.0 mi West 9.2 mph - N/A   Clear
4:55 PM 73.0 °F 33.1 °F 23% 29.99 in 10.0 mi West 4.6 mph - N/A   Clear
5:55 PM 66.9 °F 34.0 °F 30% 30.00 in 10.0 mi West 3.5 mph - N/A   Clear
6:55 PM 63.0 °F 39.0 °F 41% 30.01 in 10.0 mi SSW 3.5 mph - N/A   Clear
7:55 PM 57.9 °F 35.1 °F 42% 30.01 in 10.0 mi NE 5.8 mph - N/A   Clear
8:55 PM 57.9 °F 36.0 °F 44% 30.01 in 10.0 mi ENE 4.6 mph - N/A   Clear
9:55 PM 55.9 °F 36.0 °F 47% 30.02 in 10.0 mi ESE 3.5 mph - N/A   Clear
10:55 PM 52.0 °F 37.0 °F 57% 30.00 in 10.0 mi Calm Calm - N/A   Clear
11:55 PM 53.1 °F 35.1 °F 50% 30.00 in 10.0 mi ENE 4.6 mph - N/A   Clear